User: anonymous
Location: Unspecified
(0.0000°N, 0.0000°E)
Time: 14:45:18
(UTC+00:00)
Language:

IBEX - Orbit

View from above orbital plane
View from above orbital plane
View from above satellite
View from above satellite

Ground track
Ground track

The orbit data is extracted from the following two-line orbital elements,

1 33401U 08051A   14197.01100724 -.00002386  00000-0  00000+0 0  1038
2 33401 008.4767 128.7789 6664277 026.4682 358.0677 00.12199978  2467
Epoch (UTC): 16 July 2014 00:15:51
Eccentricity: 0.6664277
inclination: 8.4767°
perigee height: 50903 km
apogee height: 279783 km
right ascension of ascending node: 128.7789°
argument of perigee: 26.4682°
revolutions per day: 0.12199978
mean anomaly at epoch: 358.0677°
orbit number at epoch: 246

The dashed part of the orbit path shows where the satellite is in the earth's shadow,  

DLR